Location: Huberhof
(49.2050°N, 7.4980°E)
Time: 23:37:30
(UTC+00:00)

Cosmos 1697 Rocket - Pass Details

Date: 29 October 2020
Orbit: 831 x 845 km, 71.0° (Epoch: 26 November)

Event Time Altitude Azimuth Distance (km) Brightness Sun altitude
Rises 17:07:04 0° 172° (S) 3,364 5.9 -9.3°
Reaches altitude 10° 17:09:47 10° 161° (SSE) 2,437 5.0 -9.7°
Maximum altitude 17:14:28 28° 104° (ESE) 1,516 3.5 -10.5°
Drops below altitude 10° 17:19:10 10° 47° (NE) 2,458 4.6 -11.3°
Enters shadow 17:19:50 - 44° (NE) 2,673 4.8 -11.4°
